• In Hungary
  • List of Countries
  • For 7 days
  • Water Temperature
  • Satellite Maps
  • Weather Map
  • News
  • Weather Widgets
  • user-avatar
    Login

    Hourly Weather Pervomayskiy

    Today, 18 November, Saturday

    Time Temperature Precipitation Wind Pressure Humidity
    00:00 -1°C° 0 mm 2 mps 753 mmHg 89%
    01:00 -1°C° 0 mm 2 mps 752 mmHg 90%
    02:00 +1°C° 0 mm 1 mps 752 mmHg 90%
    03:00 0°C° 0 mm 1 mps 752 mmHg 90%
    04:00 0°C° 0 mm 1 mps 752 mmHg 91%
    05:00 0°C° 0 mm 1 mps 751 mmHg 91%
    06:00 +1°C° 0 mm 1 mps 751 mmHg 90%
    07:00 +1°C° 0 mm 1 mps 751 mmHg 89%
    08:00 +1°C° 0 mm 1 mps 751 mmHg 88%
    09:00 +2°C° 0 mm 1 mps 751 mmHg 84%
    10:00 +3°C° 0 mm 1 mps 751 mmHg 80%
    11:00 +4°C° 0 mm 1 mps 751 mmHg 75%
    12:00 +4°C° 0 mm 1 mps 750 mmHg 75%
    13:00 +3°C° 0 mm 2 mps 750 mmHg 74%
    14:00 +3°C° 0 mm 2 mps 749 mmHg 74%
    15:00 +3°C° 0.1 mm 2 mps 749 mmHg 77%
    16:00 +2°C° 0.1 mm 2 mps 749 mmHg 80%
    17:00 +2°C° 0.1 mm 2 mps 748 mmHg 84%
    18:00 +2°C° 0.3 mm 2 mps 748 mmHg 85%
    19:00 +2°C° 0.3 mm 2 mps 747 mmHg 86%
    20:00 +1°C° 0.3 mm 2 mps 747 mmHg 88%
    21:00 +1°C° 0.3 mm 2 mps 746 mmHg 89%
    22:00 +1°C° 0.3 mm 2 mps 746 mmHg 90%
    23:00 +1°C° 0.3 mm 2 mps 746 mmHg 92%

    Tomorrow, 19 November, Sunday

    Time Temperature Precipitation Wind Pressure Humidity
    00:00 +1°C° 0.1 mm 2 mps 745 mmHg 93%
    01:00 +1°C° 0.1 mm 2 mps 745 mmHg 94%
    02:00 +1°C° 0.1 mm 2 mps 744 mmHg 95%
    03:00 +1°C° 0 mm 2 mps 744 mmHg 95%
    04:00 +1°C° 0 mm 2 mps 743 mmHg 95%
    05:00 +1°C° 0 mm 2 mps 743 mmHg 96%
    06:00 +1°C° 0 mm 2 mps 743 mmHg 96%
    07:00 +1°C° 0 mm 2 mps 743 mmHg 96%
    08:00 +1°C° 0 mm 2 mps 742 mmHg 96%
    09:00 +1°C° 0 mm 2 mps 742 mmHg 92%
    10:00 +1°C° 0 mm 3 mps 742 mmHg 88%
    11:00 +1°C° 0 mm 3 mps 742 mmHg 84%
    12:00 +1°C° 0 mm 3 mps 742 mmHg 82%
    13:00 +1°C° 0 mm 3 mps 742 mmHg 81%
    14:00 +2°C° 0 mm 3 mps 742 mmHg 80%
    15:00 +1°C° 0 mm 3 mps 742 mmHg 83%
    16:00 +1°C° 0 mm 3 mps 742 mmHg 86%
    17:00 0°C° 0 mm 3 mps 742 mmHg 89%
    18:00 0°C° 0 mm 3 mps 742 mmHg 90%
    19:00 0°C° 0 mm 3 mps 742 mmHg 90%
    20:00 0°C° 0 mm 3 mps 742 mmHg 91%
    21:00 -1°C° 0 mm 3 mps 743 mmHg 91%
    22:00 -1°C° 0 mm 3 mps 743 mmHg 90%
    23:00 -1°C° 0 mm 3 mps 743 mmHg 90%

    Day after tomorrow, 20 November, Monday

    Time Temperature Precipitation Wind Pressure Humidity
    00:00 -1°C° 0 mm 3 mps 743 mmHg 91%
    01:00 -2°C° 0 mm 3 mps 743 mmHg 92%
    02:00 -2°C° 0 mm 3 mps 743 mmHg 92%
    03:00 -2°C° 0 mm 3 mps 743 mmHg 93%
    04:00 -2°C° 0 mm 3 mps 743 mmHg 93%
    05:00 -4°C° 0 mm 3 mps 743 mmHg 94%
    06:00 -4°C° 0 mm 3 mps 743 mmHg 94%
    07:00 -4°C° 0 mm 3 mps 743 mmHg 94%
    08:00 -4°C° 0 mm 3 mps 744 mmHg 93%
    09:00 -2°C° 0 mm 3 mps 744 mmHg 89%
    10:00 0°C° 0 mm 3 mps 744 mmHg 85%
    11:00 +1°C° 0 mm 3 mps 744 mmHg 81%
    12:00 +1°C° 0 mm 3 mps 744 mmHg 80%
    13:00 +1°C° 0 mm 3 mps 743 mmHg 80%
    14:00 +2°C° 0 mm 3 mps 743 mmHg 79%
    15:00 +2°C° 0 mm 2 mps 743 mmHg 83%
    16:00 +1°C° 0 mm 2 mps 743 mmHg 87%
    17:00 +1°C° 0 mm 2 mps 743 mmHg 90%
    18:00 +1°C° 0 mm 2 mps 743 mmHg 91%
    19:00 +2°C° 0 mm 1 mps 743 mmHg 91%
    20:00 +2°C° 0 mm 1 mps 743 mmHg 92%
    21:00 +1°C° 0.1 mm 1 mps 743 mmHg 91%
    22:00 +1°C° 0.1 mm 1 mps 743 mmHg 91%
    23:00 +1°C° 0.1 mm 1 mps 743 mmHg 90%

    21 November, Tuesday

    Time Temperature Precipitation Wind Pressure Humidity
    00:00 +1°C° 0 mm 1 mps 743 mmHg 89%
    01:00 +1°C° 0 mm 1 mps 743 mmHg 87%
    02:00 +1°C° 0 mm 1 mps 743 mmHg 86%
    03:00 +1°C° 0 mm 1 mps 743 mmHg 86%
    04:00 +1°C° 0 mm 1 mps 743 mmHg 85%
    05:00 -2°C° 0 mm 2 mps 743 mmHg 85%
    06:00 -2°C° 0.1 mm 2 mps 743 mmHg 86%
    07:00 -2°C° 0.1 mm 2 mps 743 mmHg 87%
    08:00 -2°C° 0.1 mm 2 mps 743 mmHg 88%
    09:00 -1°C° 0.1 mm 2 mps 743 mmHg 86%
    10:00 -1°C° 0.1 mm 3 mps 743 mmHg 85%
    11:00 0°C° 0.1 mm 3 mps 743 mmHg 83%
    12:00 0°C° 0 mm 3 mps 743 mmHg 82%
    13:00 0°C° 0 mm 3 mps 743 mmHg 82%
    14:00 0°C° 0 mm 3 mps 743 mmHg 81%
    15:00 -1°C° 0 mm 2 mps 743 mmHg 84%
    16:00 -1°C° 0 mm 2 mps 743 mmHg 88%
    17:00 -2°C° 0 mm 2 mps 743 mmHg 91%
    18:00 -2°C° 0 mm 2 mps 744 mmHg 92%
    19:00 -3°C° 0 mm 2 mps 744 mmHg 92%
    20:00 -3°C° 0 mm 2 mps 744 mmHg 92%
    21:00 -3°C° 0 mm 2 mps 744 mmHg 93%
    22:00 -3°C° 0 mm 2 mps 745 mmHg 93%
    23:00 -3°C° 0 mm 2 mps 745 mmHg 93%

    22 November, Wednesday

    Time Temperature Precipitation Wind Pressure Humidity
    00:00 -4°C° 0 mm 2 mps 745 mmHg 94%
    01:00 -4°C° 0 mm 2 mps 745 mmHg 94%
    02:00 -4°C° 0 mm 2 mps 745 mmHg 94%
    03:00 -4°C° 0 mm 2 mps 746 mmHg 94%
    04:00 -4°C° 0 mm 2 mps 746 mmHg 94%
    05:00 -4°C° 0 mm 2 mps 746 mmHg 95%
    06:00 -4°C° 0 mm 2 mps 746 mmHg 94%
    07:00 -4°C° 0 mm 2 mps 747 mmHg 93%
    08:00 -3°C° 0 mm 2 mps 747 mmHg 93%
    09:00 -2°C° 0 mm 2 mps 747 mmHg 88%
    10:00 -1°C° 0 mm 3 mps 748 mmHg 84%
    11:00 0°C° 0 mm 3 mps 748 mmHg 80%
    12:00 0°C° 0 mm 3 mps 748 mmHg 78%
    13:00 0°C° 0 mm 3 mps 748 mmHg 77%
    14:00 0°C° 0 mm 3 mps 748 mmHg 76%
    15:00 +1°C° 0 mm 2 mps 748 mmHg 79%
    16:00 -1°C° 0 mm 2 mps 748 mmHg 83%
    17:00 +1°C° 0 mm 1 mps 749 mmHg 86%
    18:00 -1°C° 0 mm 2 mps 749 mmHg 87%
    19:00 -2°C° 0 mm 2 mps 749 mmHg 88%
    20:00 -2°C° 0 mm 2 mps 749 mmHg 89%
    21:00 -2°C° 0 mm 2 mps 749 mmHg 88%
    22:00 -2°C° 0 mm 3 mps 749 mmHg 88%
    23:00 -2°C° 0 mm 3 mps 749 mmHg 87%

    23 November, Thursday

    Time Temperature Precipitation Wind Pressure Humidity
    00:00 -3°C° 0.1 mm 4 mps 748 mmHg 87%
    01:00 -2°C° 0.1 mm 4 mps 748 mmHg 87%
    02:00 -2°C° 0.1 mm 5 mps 748 mmHg 86%
    03:00 -2°C° 0.6 mm 5 mps 747 mmHg 88%
    04:00 -2°C° 0.6 mm 5 mps 747 mmHg 90%
    05:00 -2°C° 0.6 mm 5 mps 746 mmHg 92%
    06:00 -1°C° 0.5 mm 5 mps 746 mmHg 93%
    07:00 -1°C° 0.5 mm 5 mps 746 mmHg 94%
    08:00 0°C° 0.5 mm 4 mps 746 mmHg 95%
    09:00 0°C° 0.2 mm 4 mps 746 mmHg 96%
    10:00 +1°C° 0.2 mm 4 mps 746 mmHg 96%
    11:00 +2°C° 0.2 mm 5 mps 747 mmHg 96%
    12:00 +2°C° 0.1 mm 5 mps 747 mmHg 96%
    13:00 +3°C° 0.1 mm 4 mps 747 mmHg 95%
    14:00 +3°C° 0.1 mm 4 mps 747 mmHg 95%
    15:00 +3°C° 0 mm 4 mps 747 mmHg 95%
    16:00 +3°C° 0 mm 4 mps 748 mmHg 95%
    17:00 +3°C° 0 mm 4 mps 748 mmHg 95%
    18:00 +2°C° 0 mm 3 mps 748 mmHg 96%
    19:00 +2°C° 0 mm 3 mps 749 mmHg 96%
    20:00 +2°C° 0 mm 3 mps 749 mmHg 96%
    21:00 +1°C° 0 mm 3 mps 749 mmHg 96%
    22:00 +1°C° 0 mm 3 mps 750 mmHg 96%
    23:00 +1°C° 0 mm 3 mps 750 mmHg 96%
    Show more